Location: Bazinghen
(50.8246°N, 1.6616°E)
Time: 09:02:58
(UTC+00:00)

DMSP B5D2-2 - Pass Details

Date: 09 April 2020
Orbit: 791 x 805 km, 98.3° (Epoch: 24 May)

Event Time Altitude Azimuth Distance (km) Brightness Sun altitude
Rises 20:37:46 0° 12° (NNE) 3,305 7.6 -17.5°
Reaches altitude 10° 20:40:07 10° 10° (N) 2,373 6.9 -17.8°
Maximum altitude 20:45:18 65° 290° (WNW) 877 4.5 -18.4°
Drops below altitude 10° 20:50:28 10° 209° (SSW) 2,364 6.4 -19.0°
Sets 20:52:48 0° 207° (SSW) 3,292 7.1 -19.3°
